Location: Hermaringen
(48.5952°N, 10.2585°E)
Time: 12:14:34
(UTC+00:00)

Vanguard 2 Rocket - Visible Passes

Search period start: 16 February 2026 00:00
Search period end: 26 February 2026 00:00
Orbit: 553 x 3286 km, 32.9° (Epoch: 16 February)

Date Brightness Start Highest point End Pass type
(mag) Time Alt. Az. Time Alt. Az. Time Alt. Az.
17 Feb 9.7 17:06:46 10° WSW 17:13:32 18° SW 17:18:31 10° S visible
19 Feb 10.0 17:09:29 10° WSW 17:15:28 16° SW 17:20:06 10° S visible
21 Feb 10.3 17:12:51 10° WSW 17:17:14 13° SW 17:20:55 10° SSW visible
